[[{"header":{"parameterUnit":"m.s-1","parameterCategory":1,"la1":30.2991,"la2":30.254,"lo1":-89.0895,"lo2":-89.0444,"dy":0.0017,"dx":0.0017,"nx":28,"ny":28,"refTime":"2025-07-17T09:00:00:Z","depth":0,"parameterNumber":2,"parameterNumberName":"U-component_of_WINDS"},"data":[0,0,0,0,0,0,0,0,0,0,0,0,0,0,0,0,0,0,0,0,0,0,0,0,0,0,0,0,0,0,0,0,0,0,0,0,0,0,0,0,0,0,0,0,0,0,0,0,0,0,0,0,0,0,0,0,0,0,-3.5042,-3.5043,0,-3.5156,-3.5157,-3.5159,-3.5208,-3.5208,-3.5208,-3.5208,-3.5324,-3.5328,-3.5331,0,0,0,0,0,0,0,0,0,0,0,0,0,-3.4868,-3.4871,-3.5042,-3.5043,-3.5045,-3.5156,-3.5157,-3.5159,-3.5208,-3.5208,-3.5208,-3.5208,-3.5323,-3.5327,-3.5331,0,0,0,0,0,0,0,0,0,0,0,0,0,-3.4959,-3.4872,-3.5042,-3.5083,-3.5088,-3.5156,-3.5158,-3.5159,-3.5208,-3.5208,-3.5208,-3.5208,-3.5322,-3.5327,-3.5332,-3.5367,0,0,-3.5347,-3.5349,0,0,0,0,0,0,0,0,-3.4953,-3.4965,-3.5075,-3.508,-3.5086,-3.5168,-3.5139,-3.5229,-3.5208,-3.5163,-3.5208,-3.5208,-3.5272,-3.5281,-3.5303,-3.5373,-3.5378,-3.5347,-3.535,-3.5352,-3.5353,0,0,0,0,0,0,0,-3.4947,-3.496,-3.5087,-3.5077,-3.5083,-3.5096,-3.5109,-3.5156,-3.5218,-3.5167,-3.517,-3.5183,-3.5275,-3.5299,-3.5306,-3.5379,-3.5347,-3.5351,-3.5354,-3.5356,-3.5485,-3.5485,0,0,0,0,0,0,-3.4934,-3.4955,-3.5083,-3.5091,-3.5018,-3.5099,-3.5113,-3.5142,-3.5217,-3.5228,-3.5183,-3.5185,-3.529,-3.5301,-3.5311,-3.5358,-3.5352,-3.5357,-3.5359,-3.5485,-3.5485,-3.5486,0,0,0,0,0,0,-3.493,-3.4945,-3.5079,-3.5024,-3.5042,-3.5103,-3.5134,-3.5144,-3.5167,-3.523,-3.5241,-3.5196,-3.529,-3.5304,-3.5353,-3.5363,-3.5359,-3.5363,-3.5484,-3.5485,-3.5485,-3.5452,0,0,0,0,0,0,-3.4925,-3.4943,-3.4957,-3.5024,-3.5045,-3.5119,-3.5134,-3.5146,-3.5176,-3.5179,-3.5245,-3.5255,-3.5291,-3.5346,-3.5358,-3.537,-3.5367,-3.5483,-3.5484,-3.5485,-3.5453,-3.5452,-3.5451,0,0,0,0,0,-3.4918,-3.4943,-3.4957,-3.4973,-3.5063,-3.5119,-3.5131,-3.5172,-3.5176,-3.5191,-3.5231,-3.5253,-3.536,-3.535,-3.5365,-3.5378,-3.5483,-3.5484,-3.5485,-3.5453,-3.5452,-3.5451,0,0,0,0,0,0,-3.4875,-3.4952,-3.4969,-3.5016,-3.5061,-3.5127,-3.5147,-3.517,-3.5214,-3.5215,-3.5265,-3.5279,-3.5324,-3.5356,-3.5344,-3.5417,-3.5423,-3.5427,-3.5394,-3.5394,-3.5393,-3.5384,-3.5371,0,0,0,0,0,-3.4871,-3.491,-3.4976,-3.501,-3.5032,-3.5086,-3.5112,-3.514,-3.5188,-3.5207,-3.5251,-3.5297,-3.5342,-3.5369,-3.5413,-3.5458,-3.5474,-3.5474,-3.5473,-3.5472,-3.5475,-3.5502,-3.5504,-3.5489,-3.5489,-3.5489,0,0,-3.4863,-3.491,-3.4931,-3.5003,-3.5041,-3.5081,-3.5101,-3.5142,-3.5172,-3.5213,-3.5263,-3.5297,-3.5352,-3.5399,-3.5422,-3.5427,-3.5483,-3.5474,-3.5473,-3.5476,-3.5504,-3.5505,-3.5506,-3.549,-3.549,-3.549,0,0,-3.4868,-3.4908,-3.4942,-3.498,-3.5037,-3.5073,-3.5081,-3.5145,-3.5169,-3.522,-3.5252,-3.5289,-3.5363,-3.5401,-3.5431,-3.5452,-3.5474,-3.5465,-3.546,-3.5486,-3.5488,-3.5489,-3.5497,-3.5499,-3.5468,-3.5468,-3.5468,0,-3.4851,-3.4912,-3.4956,-3.4996,-3.5027,-3.5066,-3.5101,-3.5136,-3.5205,-3.5226,-3.523,-3.5326,-3.5366,-3.5423,-3.5428,-3.5451,-3.5462,-3.5458,-3.5484,-3.5486,-3.5487,-3.5496,-3.5499,-3.5467,-3.5467,-3.5467,-3.5467,0,-3.4888,-3.493,-3.4951,-3.5017,-3.505,-3.5087,-3.5137,-3.5166,-3.5191,-3.5227,-3.5278,-3.5327,-3.5383,-3.5399,-3.5424,-3.546,-3.5461,-3.5474,-3.5482,-3.5487,-3.5495,-3.5499,-3.5464,-3.5465,-3.5465,-3.5466,0,0,-3.4868,-3.4959,-3.4966,-3.4997,-3.5064,-3.5098,-3.5137,-3.5192,-3.5215,-3.5262,-3.5297,-3.536,-3.5373,-3.5406,-3.5436,-3.5458,-3.5474,-3.5469,-3.5471,-3.5468,-3.5518,-3.5507,-3.551,-3.5489,-3.549,-3.549,-3.5513,0,-3.4883,-3.4955,-3.4997,-3.5052,-3.5092,-3.5131,-3.5166,-3.5211,-3.5245,-3.5285,-3.5323,-3.5367,-3.538,-3.5401,-3.5425,-3.5466,-3.5484,-3.5465,-3.5522,-3.5523,-3.5507,-3.5515,-3.5504,-3.5523,-3.5517,-3.5517,-3.5518,0,-3.491,-3.4956,-3.5015,-3.5079,-3.5097,-3.5128,-3.5182,-3.5218,-3.5271,-3.5295,-3.5332,-3.5363,-3.5407,-3.5411,-3.5473,-3.5459,-3.5485,-3.5509,-3.5511,-3.5517,-3.552,-3.5522,-3.553,-3.5533,-3.5524,-3.5523,-3.5523,0,-3.489,-3.4967,-3.5013,-3.5038,-3.5114,-3.5134,-3.5167,-3.5219,-3.5249,-3.5297,-3.5317,-3.5369,-3.5397,-3.5437,-3.548,-3.5479,-3.5538,-3.5546,-3.5559,-3.5558,-3.5569,-3.5568,-3.5582,-3.5586,-3.5586,-3.5586,-3.5586,0,-3.4903,-3.4937,-3.5005,-3.5033,-3.5074,-3.5122,-3.5161,-3.5196,-3.5243,-3.5279,-3.5316,-3.5349,-3.5405,-3.5445,-3.548,-3.5526,-3.5539,-3.5559,-3.5568,-3.5556,-3.5553,-3.5573,-3.5573,-3.5587,-3.5586,-3.5586,-3.5586,0,-3.4887,-3.4934,-3.4986,-3.5054,-3.5072,-3.5099,-3.5157,-3.5186,-3.5223,-3.5268,-3.5281,-3.534,-3.5389,-3.5437,-3.5503,-3.5527,-3.5573,-3.5584,-3.5555,-3.556,-3.557,-3.5569,-3.5597,-3.5604,-3.5603,-3.5603,-3.5603,0,-3.4892,-3.4919,-3.499,-3.5017,-3.5049,-3.5091,-3.5123,-3.5172,-3.5203,-3.5266,-3.5287,-3.534,-3.5384,-3.5462,-3.551,-3.5561,-3.5575,-3.5581,-3.5582,-3.557,-3.5575,-3.5573,-3.5576,-3.558,-3.5579,-3.5579,-3.5579,0,-3.4895,-3.4917,-3.4961,-3.5013,-3.505,-3.5094,-3.5138,-3.5158,-3.5216,-3.5249,-3.5301,-3.5335,-3.5404,-3.5455,-3.5512,-3.5547,-3.5573,-3.5578,-3.5584,-3.5572,-3.5554,-3.5564,-3.5552,-3.5577,-3.5578,-3.5578,-3.5578,-3.5578,-3.489,-3.4917,-3.4971,-3.5019,-3.5058,-3.5099,-3.513,-3.5172,-3.5215,-3.5274,-3.5301,-3.5353,-3.5406,-3.5485,-3.5519,-3.5561,-3.5567,-3.5576,-3.5578,-3.5579,-3.5577,-3.5547,-3.5572,-3.5572,-3.5572,-3.5572,-3.5572,0,-3.4896,-3.4933,-3.4977,-3.5038,-3.5076,-3.5098,-3.5149,-3.5179,-3.5225,-3.5272,-3.5315,-3.5375,-3.5426,-3.5478,-3.5532,-3.5556,-3.5569,-3.5568,-3.5567,-3.5575,-3.5568,-3.5557,-3.5557,-3.5557,-3.5557,-3.5557,-3.5557,-3.5557,-3.4903,-3.495,-3.4979,-3.5046,-3.5083,-3.5134,-3.5161,-3.52,-3.5238,-3.5303,-3.5345,-3.5379,-3.5429,-3.5488,-3.5535,-3.555,-3.5568,-3.5564,-3.5581,-3.5574,-3.5575,-3.5576,-3.5566,-3.5567,-3.5567,-3.5585,-3.5585,-3.5585]},{"header":{"parameterUnit":"m.s-1","parameterCategory":1,"la1":30.2991,"la2":30.254,"lo1":-89.0895,"lo2":-89.0444,"dy":0.0017,"dx":0.0017,"nx":28,"ny":28,"refTime":"2025-07-17T09:00:00:Z","depth":0,"parameterNumber":3,"parameterNumberName":"V-component_of_WINDS"},"data":[0,0,0,0,0,0,0,0,0,0,0,0,0,0,0,0,0,0,0,0,0,0,0,0,0,0,0,0,0,0,0,0,0,0,0,0,0,0,0,0,0,0,0,0,0,0,0,0,0,0,0,0,0,0,0,0,0,0,3.3408,3.3412,0,3.3745,3.3749,3.3753,3.3917,3.3917,3.3917,3.3917,3.4259,3.4268,3.4277,0,0,0,0,0,0,0,0,0,0,0,0,0,3.2903,3.2912,3.3408,3.3412,3.3416,3.3744,3.3749,3.3754,3.3917,3.3917,3.3917,3.3917,3.4256,3.4267,3.4278,0,0,0,0,0,0,0,0,0,0,0,0,0,3.3169,3.2914,3.3407,3.3538,3.3553,3.3744,3.3749,3.3755,3.3918,3.3917,3.3917,3.3917,3.4252,3.4266,3.4279,3.4364,0,0,3.4321,3.4327,0,0,0,0,0,0,0,0,3.3154,3.3188,3.3514,3.3529,3.3546,3.3789,3.3697,3.3959,3.3918,3.3779,3.3917,3.3917,3.4102,3.4128,3.4192,3.438,3.4395,3.4322,3.433,3.4336,3.434,0,0,0,0,0,0,0,3.3135,3.3174,3.3541,3.3519,3.3538,3.3578,3.3616,3.3747,3.3937,3.3791,3.3804,3.3842,3.4111,3.4178,3.4201,3.44,3.4322,3.4334,3.4342,3.4348,3.4678,3.4678,0,0,0,0,0,0,3.3096,3.3157,3.3531,3.3551,3.3346,3.3588,3.363,3.3711,3.3936,3.397,3.3841,3.3848,3.4155,3.4185,3.4213,3.433,3.4336,3.4349,3.4357,3.4677,3.4678,3.4678,0,0,0,0,0,0,3.3085,3.3128,3.3517,3.3358,3.3411,3.3596,3.3686,3.3718,3.3785,3.3974,3.4008,3.3875,3.4156,3.4194,3.4326,3.4344,3.4355,3.4368,3.4676,3.4677,3.4678,3.4561,0,0,0,0,0,0,3.3069,3.3123,3.3158,3.3358,3.3419,3.3624,3.3688,3.3725,3.3809,3.3821,3.4015,3.4047,3.4159,3.4305,3.434,3.4363,3.4378,3.4676,3.4677,3.4678,3.4564,3.4558,3.4552,0,0,0,0,0,3.3051,3.311,3.3159,3.3203,3.3466,3.3625,3.366,3.3789,3.3809,3.3846,3.3967,3.404,3.4336,3.4317,3.4358,3.4385,3.4675,3.4676,3.4678,3.4567,3.4559,3.4552,0,0,0,0,0,0,3.2905,3.3139,3.3195,3.3321,3.3452,3.3653,3.3702,3.3776,3.3903,3.3909,3.4062,3.4105,3.4223,3.4318,3.4292,3.448,3.4513,3.4522,3.4414,3.4409,3.4403,3.4378,3.439,0,0,0,0,0,3.2888,3.2999,3.3196,3.3288,3.3351,3.3515,3.3589,3.3677,3.3819,3.3875,3.4006,3.4139,3.4263,3.4341,3.4465,3.4578,3.4624,3.4617,3.4611,3.4605,3.4612,3.4681,3.4681,3.4682,3.4682,3.4682,0,0,3.2853,3.2994,3.3055,3.3263,3.3375,3.3485,3.3561,3.3674,3.3757,3.3892,3.4025,3.4126,3.4285,3.4409,3.447,3.4491,3.4621,3.4607,3.4601,3.4611,3.4682,3.4681,3.4681,3.4683,3.4683,3.4683,0,0,3.2846,3.2964,3.3055,3.3166,3.3335,3.3444,3.3465,3.3656,3.3728,3.3865,3.3968,3.4069,3.4278,3.4388,3.4471,3.4507,3.458,3.4543,3.4512,3.4577,3.4577,3.4578,3.4592,3.4595,3.4549,3.4548,3.4548,0,3.2781,3.2953,3.3091,3.32,3.3288,3.3416,3.3509,3.361,3.381,3.3868,3.3889,3.4155,3.4271,3.4423,3.4432,3.4495,3.4524,3.4522,3.4566,3.4568,3.4571,3.4586,3.459,3.4543,3.4543,3.4544,3.4545,0,3.2865,3.2983,3.3035,3.3227,3.3322,3.3421,3.3573,3.3652,3.3732,3.3838,3.3976,3.412,3.4277,3.4319,3.4397,3.4483,3.4491,3.4536,3.4573,3.4563,3.458,3.4586,3.4535,3.4537,3.4539,3.454,0,0,3.2776,3.3044,3.3061,3.3151,3.3347,3.3441,3.3546,3.37,3.3765,3.3899,3.3991,3.4166,3.421,3.4304,3.4396,3.4453,3.4474,3.4494,3.45,3.4486,3.4579,3.4543,3.4548,3.4524,3.4525,3.4527,3.4566,0,3.2797,3.2994,3.3121,3.3267,3.3377,3.3501,3.3593,3.3723,3.3825,3.3934,3.4046,3.4168,3.4217,3.4275,3.4337,3.4458,3.4495,3.4457,3.4611,3.4615,3.4568,3.4557,3.4519,3.4549,3.4573,3.4574,3.4575,0,3.2848,3.2981,3.3137,3.3324,3.3375,3.3455,3.3607,3.3709,3.386,3.393,3.4036,3.413,3.4246,3.4272,3.4435,3.4406,3.4477,3.4546,3.455,3.457,3.4595,3.4577,3.4562,3.4566,3.4587,3.4586,3.4585,0,3.2768,3.2985,3.3108,3.318,3.34,3.3454,3.3548,3.3699,3.3784,3.3916,3.3973,3.4117,3.4195,3.4304,3.4435,3.4441,3.4585,3.4621,3.4647,3.4644,3.4672,3.4669,3.4669,3.4716,3.4716,3.4715,3.4715,0,3.2779,3.287,3.3075,3.315,3.3256,3.3402,3.3502,3.3606,3.374,3.3837,3.3952,3.4041,3.4208,3.4317,3.442,3.454,3.4574,3.4635,3.4661,3.4625,3.4617,3.4674,3.4675,3.4717,3.4717,3.4716,3.4716,0,3.2707,3.2848,3.299,3.3187,3.3239,3.3308,3.3477,3.3555,3.3664,3.3786,3.3823,3.3993,3.4128,3.4269,3.4452,3.4521,3.4637,3.4674,3.4587,3.4602,3.4621,3.4617,3.4658,3.4671,3.4706,3.4706,3.4705,0,3.2704,3.2778,3.2984,3.3058,3.315,3.3267,3.3356,3.3502,3.3588,3.3766,3.3822,3.3966,3.4089,3.4299,3.4439,3.458,3.4621,3.4626,3.4643,3.4605,3.4622,3.4617,3.4625,3.4619,3.4618,3.4617,3.4616,0,3.2686,3.2752,3.2875,3.3023,3.3125,3.3248,3.3375,3.3429,3.36,3.3692,3.3832,3.3927,3.4115,3.4257,3.4414,3.4511,3.4593,3.461,3.4624,3.4588,3.4535,3.4565,3.4571,3.4608,3.4609,3.461,3.461,3.4611,3.265,3.2721,3.2878,3.3011,3.3123,3.3239,3.3323,3.3443,3.3563,3.3728,3.3806,3.3947,3.4097,3.4318,3.4413,3.4525,3.4549,3.4568,3.4573,3.4576,3.4567,3.4517,3.4554,3.4555,3.4555,3.4555,3.4556,0,3.2637,3.2745,3.2866,3.3042,3.3146,3.3215,3.336,3.3443,3.3565,3.3699,3.3819,3.398,3.4119,3.427,3.4418,3.4479,3.452,3.4513,3.451,3.4531,3.4537,3.4511,3.4477,3.4477,3.4477,3.4477,3.4477,3.4477,3.2643,3.2769,3.2854,3.3036,3.3143,3.3282,3.3359,3.3468,3.3576,3.3752,3.3868,3.3966,3.4108,3.4267,3.4398,3.4439,3.4488,3.447,3.4522,3.4525,3.4531,3.4536,3.4513,3.448,3.4479,3.4507,3.4507,3.4507]}]]